Location: ??????????
(54.8537°N, 38.8755°E)
Time: 01:55:52
(UTC+00:00)

Transit 2A Rocket - Pass Details

Date: 17 September 2024
Orbit: 583 x 908 km, 66.7° (Epoch: 15 October)

Event Time Altitude Azimuth Distance (km) Brightness Sun altitude
Exits shadow 01:32:23 - 300° (WNW) 3,516 8.1 -13.2°
Reaches altitude 10° 01:35:15 10° 312° (NW) 2,598 7.5 -12.8°
Maximum altitude 01:40:23 28° 9° (N) 1,627 7.0 -12.1°
Drops below altitude 10° 01:45:21 10° 67° (ENE) 2,500 9.2 -11.4°
Sets 01:48:08 0° 80° (E) 3,390 10.3 -11.1°
